Time,TemperatureF,DewpointF,PressureIn,WindDirection,WindDirectionDegrees,WindSpeedMPH,WindSpeedGustMPH,Humidity,HourlyPrecipIn,Conditions,Clouds,dailyrainin,SoftwareType,DateUTC
2013-04-07 00:00:00,65.1,58.5,30.06,North,-999,-999.0,-999.0,80,0.00,,,0.00,WSDL version 420,2013-04-07 04:00:00,
2013-04-07 00:05:00,65.3,58.9,30.06,North,-999,-999.0,-999.0,80,0.00,,,0.00,WSDL version 420,2013-04-07 04:05:00,
2013-04-07 00:10:00,65.4,59.1,30.06,North,-999,-999.0,-999.0,80,0.00,,,0.00,WSDL version 420,2013-04-07 04:10:00,
2013-04-07 00:15:00,65.5,59.2,30.06,North,-999,-999.0,-999.0,80,0.00,,,0.00,WSDL version 420,2013-04-07 04:15:00,
2013-04-07 00:20:00,65.5,59.2,30.06,North,-999,-999.0,-999.0,80,0.00,,,0.00,WSDL version 420,2013-04-07 04:20:00,
2013-04-07 00:25:00,65.5,59.2,30.06,North,-999,-999.0,-999.0,80,0.00,,,0.00,WSDL version 420,2013-04-07 04:25:00,
2013-04-07 00:30:00,65.5,59.2,30.06,North,-999,-999.0,-999.0,80,0.00,,,0.00,WSDL version 420,2013-04-07 04:30:00,
2013-04-07 00:35:00,65.8,59.4,30.06,North,-999,-999.0,-999.0,80,0.00,,,0.00,WSDL version 420,2013-04-07 04:35:00,
2013-04-07 00:40:00,66.3,59.9,30.06,North,-999,-999.0,-999.0,80,0.00,,,0.00,WSDL version 420,2013-04-07 04:40:00,
2013-04-07 00:45:00,66.8,60.1,30.06,North,-999,-999.0,-999.0,79,0.00,,,0.00,WSDL version 420,2013-04-07 04:45:00,
2013-04-07 00:50:00,67.3,60.4,30.03,North,-999,-999.0,-999.0,78,0.00,,,0.00,WSDL version 420,2013-04-07 04:50:00,
2013-04-07 00:55:00,67.6,60.1,30.03,North,-999,-999.0,-999.0,76,0.00,,,0.00,WSDL version 420,2013-04-07 04:55:00,
2013-04-07 01:00:00,67.7,59.7,30.03,North,-999,-999.0,-999.0,75,0.00,,,0.00,WSDL version 420,2013-04-07 05:00:00,
2013-04-07 01:05:00,68.0,59.3,30.00,North,-999,-999.0,-999.0,73,0.00,,,0.00,WSDL version 420,2013-04-07 05:05:00,
2013-04-07 01:10:00,68.2,58.8,30.00,North,-999,-999.0,-999.0,72,0.00,,,0.00,WSDL version 420,2013-04-07 05:10:00,
2013-04-07 01:15:00,68.3,58.8,30.00,North,-999,-999.0,-999.0,71,0.00,,,0.00,WSDL version 420,2013-04-07 05:15:00,
2013-04-07 01:25:00,68.3,58.5,30.00,North,-999,-999.0,-999.0,71,0.00,,,0.00,WSDL version 420,2013-04-07 05:25:00,
2013-04-07 01:30:00,68.2,58.1,30.00,North,-999,-999.0,-999.0,70,0.00,,,0.00,WSDL version 420,2013-04-07 05:30:00,
2013-04-07 01:35:00,68.2,58.0,30.03,North,-999,-999.0,-999.0,70,0.00,,,0.00,WSDL version 420,2013-04-07 05:35:00,
2013-04-07 01:45:00,68.2,58.0,30.03,North,-999,-999.0,-999.0,70,0.00,,,0.00,WSDL version 420,2013-04-07 05:45:00,
2013-04-07 01:50:00,68.2,58.0,30.00,North,-999,-999.0,-999.0,70,0.00,,,0.00,WSDL version 420,2013-04-07 05:50:00,
2013-04-07 01:59:00,68.0,57.9,30.00,North,-999,-999.0,-999.0,70,0.00,,,0.00,WSDL version 420,2013-04-07 05:59:00,
2013-04-07 02:04:00,68.0,57.9,30.00,North,-999,-999.0,-999.0,70,0.00,,,0.00,WSDL version 420,2013-04-07 06:04:00,
2013-04-07 02:09:00,68.0,57.8,30.00,North,-999,-999.0,-999.0,70,0.00,,,0.00,WSDL version 420,2013-04-07 06:09:00,
2013-04-07 02:19:00,68.0,57.9,30.00,North,-999,-999.0,-999.0,70,0.00,,,0.00,WSDL version 420,2013-04-07 06:19:00,
2013-04-07 02:24:00,68.0,57.9,30.00,North,-999,-999.0,-999.0,70,0.00,,,0.00,WSDL version 420,2013-04-07 06:24:00,
2013-04-07 02:33:00,68.0,57.9,30.00,North,-999,-999.0,-999.0,70,0.00,,,0.00,WSDL version 420,2013-04-07 06:33:00,
2013-04-07 02:38:00,68.0,57.9,30.00,North,-999,-999.0,-999.0,70,0.00,,,0.00,WSDL version 420,2013-04-07 06:38:00,
2013-04-07 02:43:00,68.1,57.8,30.00,North,-999,-999.0,-999.0,70,0.00,,,0.00,WSDL version 420,2013-04-07 06:43:00,
2013-04-07 02:48:00,68.2,57.9,30.00,North,-999,-999.0,-999.0,69,0.00,,,0.00,WSDL version 420,2013-04-07 06:48:00,
2013-04-07 02:53:00,68.1,57.5,30.00,North,-999,-999.0,-999.0,69,0.00,,,0.00,WSDL version 420,2013-04-07 06:53:00,
2013-04-07 02:58:00,68.0,57.5,30.00,North,-999,-999.0,-999.0,69,0.00,,,0.00,WSDL version 420,2013-04-07 06:58:00,
2013-04-07 03:03:00,68.0,57.5,30.00,North,-999,-999.0,-999.0,69,0.00,,,0.00,WSDL version 420,2013-04-07 07:03:00,
2013-04-07 03:08:00,68.1,57.6,30.00,North,-999,-999.0,-999.0,69,0.00,,,0.00,WSDL version 420,2013-04-07 07:08:00,
2013-04-07 03:13:00,68.0,57.5,30.00,North,-999,-999.0,-999.0,69,0.00,,,0.00,WSDL version 420,2013-04-07 07:13:00,
2013-04-07 03:18:00,68.0,57.5,30.00,North,-999,-999.0,-999.0,69,0.00,,,0.00,WSDL version 420,2013-04-07 07:18:00,
2013-04-07 03:23:00,68.2,57.5,29.97,North,-999,-999.0,-999.0,68,0.00,,,0.00,WSDL version 420,2013-04-07 07:23:00,
2013-04-07 03:28:00,68.2,57.2,29.97,North,-999,-999.0,-999.0,68,0.00,,,0.00,WSDL version 420,2013-04-07 07:28:00,
2013-04-07 03:33:00,68.1,57.1,29.97,North,-999,-999.0,-999.0,68,0.00,,,0.00,WSDL version 420,2013-04-07 07:33:00,
2013-04-07 03:38:00,67.9,57.2,30.00,North,-999,-999.0,-999.0,69,0.00,,,0.00,WSDL version 420,2013-04-07 07:38:00,
2013-04-07 03:43:00,67.7,57.2,30.00,North,-999,-999.0,-999.0,69,0.00,,,0.00,WSDL version 420,2013-04-07 07:43:00,
2013-04-07 03:48:00,67.6,57.1,30.00,North,-999,-999.0,-999.0,69,0.00,,,0.00,WSDL version 420,2013-04-07 07:48:00,
2013-04-07 03:53:00,67.5,56.9,30.00,North,-999,-999.0,-999.0,69,0.00,,,0.00,WSDL version 420,2013-04-07 07:53:00,
2013-04-07 03:58:00,67.4,56.9,30.00,North,-999,-999.0,-999.0,69,0.00,,,0.00,WSDL version 420,2013-04-07 07:58:00,
2013-04-07 04:03:00,67.3,56.8,30.00,North,-999,-999.0,-999.0,69,0.00,,,0.00,WSDL version 420,2013-04-07 08:03:00,
2013-04-07 04:08:00,67.3,56.8,30.00,North,-999,-999.0,-999.0,69,0.00,,,0.00,WSDL version 420,2013-04-07 08:08:00,
2013-04-07 04:13:00,67.2,56.7,30.00,North,-999,-999.0,-999.0,69,0.00,,,0.00,WSDL version 420,2013-04-07 08:13:00,
2013-04-07 04:18:00,67.1,56.6,30.00,North,-999,-999.0,-999.0,69,0.00,,,0.00,WSDL version 420,2013-04-07 08:18:00,
2013-04-07 04:23:00,67.0,56.5,30.00,North,-999,-999.0,-999.0,69,0.00,,,0.00,WSDL version 420,2013-04-07 08:23:00,
2013-04-07 04:28:00,66.9,56.4,30.00,North,-999,-999.0,-999.0,69,0.00,,,0.00,WSDL version 420,2013-04-07 08:28:00,
2013-04-07 04:38:00,66.7,56.2,30.00,North,-999,-999.0,-999.0,69,0.00,,,0.00,WSDL version 420,2013-04-07 08:38:00,
2013-04-07 04:43:00,66.6,56.1,30.00,North,-999,-999.0,-999.0,69,0.00,,,0.00,WSDL version 420,2013-04-07 08:43:00,
2013-04-07 04:48:00,66.5,56.0,30.00,North,-999,-999.0,-999.0,69,0.00,,,0.00,WSDL version 420,2013-04-07 08:48:00,
2013-04-07 04:53:00,66.4,55.9,30.00,North,-999,-999.0,-999.0,69,0.00,,,0.00,WSDL version 420,2013-04-07 08:53:00,
2013-04-07 04:58:00,66.2,56.1,30.00,North,-999,-999.0,-999.0,70,0.00,,,0.00,WSDL version 420,2013-04-07 08:58:00,
2013-04-07 05:08:00,65.8,56.1,30.00,North,-999,-999.0,-999.0,71,0.00,,,0.00,WSDL version 420,2013-04-07 09:08:00,
2013-04-07 05:13:00,65.7,56.0,30.00,North,-999,-999.0,-999.0,71,0.00,,,0.00,WSDL version 420,2013-04-07 09:13:00,
2013-04-07 05:18:00,65.7,56.0,30.00,North,-999,-999.0,-999.0,71,0.00,,,0.00,WSDL version 420,2013-04-07 09:18:00,
2013-04-07 05:23:00,65.7,56.0,30.00,North,-999,-999.0,-999.0,71,0.00,,,0.00,WSDL version 420,2013-04-07 09:23:00,
2013-04-07 05:33:00,65.3,56.0,30.00,North,-999,-999.0,-999.0,72,0.00,,,0.00,WSDL version 420,2013-04-07 09:33:00,
2013-04-07 05:38:00,65.1,55.9,30.00,North,-999,-999.0,-999.0,73,0.00,,,0.00,WSDL version 420,2013-04-07 09:38:00,
2013-04-07 05:43:00,64.7,55.8,30.00,North,-999,-999.0,-999.0,73,0.00,,,0.00,WSDL version 420,2013-04-07 09:43:00,
2013-04-07 05:53:00,64.8,56.3,30.00,North,-999,-999.0,-999.0,74,0.00,,,0.00,WSDL version 420,2013-04-07 09:53:00,
2013-04-07 05:58:00,64.6,56.1,30.00,North,-999,-999.0,-999.0,74,0.00,,,0.00,WSDL version 420,2013-04-07 09:58:00,
2013-04-07 06:08:00,64.4,56.3,30.00,North,-999,-999.0,-999.0,75,0.00,,,0.00,WSDL version 420,2013-04-07 10:08:00,
2013-04-07 06:13:00,64.2,56.4,30.00,North,-999,-999.0,-999.0,76,0.00,,,0.00,WSDL version 420,2013-04-07 10:13:00,
2013-04-07 06:23:00,63.9,56.5,30.00,North,-999,-999.0,-999.0,77,0.00,,,0.00,WSDL version 420,2013-04-07 10:23:00,
2013-04-07 06:28:00,63.8,56.5,30.00,North,-999,-999.0,-999.0,77,0.00,,,0.00,WSDL version 420,2013-04-07 10:28:00,
2013-04-07 06:38:00,63.5,56.5,30.00,North,-999,-999.0,-999.0,78,0.00,,,0.00,WSDL version 420,2013-04-07 10:38:00,
2013-04-07 06:48:00,63.2,56.6,30.00,North,-999,-999.0,-999.0,79,0.00,,,0.00,WSDL version 420,2013-04-07 10:48:00,
2013-04-07 06:53:00,63.1,56.5,30.00,North,-999,-999.0,-999.0,79,0.00,,,0.00,WSDL version 420,2013-04-07 10:53:00,
2013-04-07 06:58:00,63.0,56.4,30.00,North,-999,-999.0,-999.0,79,0.00,,,0.00,WSDL version 420,2013-04-07 10:58:00,
2013-04-07 07:03:00,63.0,56.6,30.00,North,-999,-999.0,-999.0,80,0.00,,,0.00,WSDL version 420,2013-04-07 11:03:00,
2013-04-07 07:08:00,62.8,56.5,30.03,North,-999,-999.0,-999.0,80,0.00,,,0.00,WSDL version 420,2013-04-07 11:08:00,
2013-04-07 07:13:00,62.8,56.5,30.03,North,-999,-999.0,-999.0,80,0.00,,,0.00,WSDL version 420,2013-04-07 11:13:00,
2013-04-07 07:23:00,62.7,56.8,30.03,North,-999,-999.0,-999.0,81,0.00,,,0.00,WSDL version 420,2013-04-07 11:23:00,
2013-04-07 07:28:00,62.7,56.8,30.03,North,-999,-999.0,-999.0,81,0.00,,,0.00,WSDL version 420,2013-04-07 11:28:00,
2013-04-07 07:33:00,62.8,57.2,30.03,North,-999,-999.0,-999.0,82,0.00,,,0.00,WSDL version 420,2013-04-07 11:33:00,
2013-04-07 07:43:00,63.1,57.6,30.06,North,-999,-999.0,-999.0,82,0.00,,,0.00,WSDL version 420,2013-04-07 11:43:00,
2013-04-07 07:48:00,63.4,58.1,30.06,North,-999,-999.0,-999.0,83,0.00,,,0.00,WSDL version 420,2013-04-07 11:48:00,
2013-04-07 07:53:00,63.8,58.7,30.06,North,-999,-999.0,-999.0,83,0.00,,,0.00,WSDL version 420,2013-04-07 11:53:00,
2013-04-07 07:58:00,64.1,58.9,30.06,North,-999,-999.0,-999.0,83,0.00,,,0.00,WSDL version 420,2013-04-07 11:58:00,
2013-04-07 08:08:00,65.3,60.2,30.06,North,-999,-999.0,-999.0,83,0.00,,,0.00,WSDL version 420,2013-04-07 12:08:00,
2013-04-07 08:13:00,65.8,60.5,30.06,North,-999,-999.0,-999.0,82,0.00,,,0.00,WSDL version 420,2013-04-07 12:13:00,
2013-04-07 08:18:00,66.7,60.8,30.06,North,-999,-999.0,-999.0,81,0.00,,,0.00,WSDL version 420,2013-04-07 12:18:00,
2013-04-07 08:23:00,67.4,61.4,30.06,North,-999,-999.0,-999.0,81,0.00,,,0.00,WSDL version 420,2013-04-07 12:23:00,
2013-04-07 08:28:00,68.0,61.6,30.06,North,-999,-999.0,-999.0,80,0.00,,,0.00,WSDL version 420,2013-04-07 12:28:00,
2013-04-07 08:33:00,68.6,61.6,30.06,WNW,293,0.0,0.0,78,0.00,,,0.00,WSDL version 420,2013-04-07 12:33:00,
2013-04-07 08:38:00,69.3,61.7,30.06,WNW,293,0.0,0.0,76,0.00,,,0.00,WSDL version 420,2013-04-07 12:38:00,
2013-04-07 08:48:00,70.4,61.6,30.06,North,0,0.0,0.0,73,0.00,,,0.00,WSDL version 420,2013-04-07 12:48:00,
2013-04-07 08:53:00,70.9,60.8,30.03,North,0,0.0,0.0,70,0.00,,,0.00,WSDL version 420,2013-04-07 12:53:00,
2013-04-07 08:58:00,71.4,61.5,30.03,North,0,0.0,2.0,71,0.00,,,0.00,WSDL version 420,2013-04-07 12:58:00,
2013-04-07 09:03:00,71.7,61.0,30.03,NE,45,1.4,2.7,68,0.00,,,0.00,WSDL version 420,2013-04-07 13:03:00,
2013-04-07 09:08:00,72.7,61.2,30.03,SE,124,3.5,4.9,66,0.00,,,0.00,WSDL version 420,2013-04-07 13:08:00,
2013-04-07 09:13:00,73.2,59.9,30.03,South,180,2.7,12.3,63,0.00,,,0.00,WSDL version 420,2013-04-07 13:13:00,
2013-04-07 09:23:00,74.0,58.2,30.06,East,98,3.7,7.6,58,0.00,,,0.00,WSDL version 420,2013-04-07 13:23:00,
2013-04-07 09:28:00,74.4,58.8,30.06,ENE,68,3.4,7.6,59,0.00,,,0.00,WSDL version 420,2013-04-07 13:28:00,
2013-04-07 09:33:00,75.6,59.3,30.06,NE,45,4.5,5.8,54,0.00,,,0.00,WSDL version 420,2013-04-07 13:33:00,
2013-04-07 09:38:00,76.6,57.8,30.09,NE,53,4.6,6.0,52,0.00,,,0.00,WSDL version 420,2013-04-07 13:38:00,
2013-04-07 09:43:00,76.5,57.1,30.09,ESE,113,2.7,6.0,50,0.00,,,0.00,WSDL version 420,2013-04-07 13:43:00,
2013-04-07 09:53:00,75.6,56.1,30.09,ESE,113,2.7,2.7,51,0.00,,,0.00,WSDL version 420,2013-04-07 13:53:00,
2013-04-07 10:03:00,76.9,55.9,30.09,East,90,4.0,6.3,48,0.00,,,0.00,WSDL version 420,2013-04-07 14:03:00,
2013-04-07 10:08:00,78.1,56.6,30.09,SSE,152,3.4,6.3,47,0.00,,,0.00,WSDL version 420,2013-04-07 14:08:00,
2013-04-07 10:13:00,78.8,56.5,30.09,SE,131,3.4,5.4,47,0.00,,,0.00,WSDL version 420,2013-04-07 14:13:00,
2013-04-07 10:18:00,78.8,56.8,30.09,NE,45,4.5,5.6,46,0.00,,,0.00,WSDL version 420,2013-04-07 14:18:00,
2013-04-07 10:23:00,77.8,55.7,30.09,ESE,113,2.5,5.6,47,0.00,,,0.00,WSDL version 420,2013-04-07 14:23:00,
2013-04-07 10:28:00,77.1,55.3,30.09,North,0,0.0,5.6,47,0.00,,,0.00,WSDL version 420,2013-04-07 14:28:00,
2013-04-07 10:33:00,76.2,55.1,30.09,East,90,3.6,3.6,48,0.00,,,0.00,WSDL version 420,2013-04-07 14:33:00,
2013-04-07 10:38:00,75.7,54.8,30.09,ENE,68,4.1,6.0,49,0.00,,,0.00,WSDL version 420,2013-04-07 14:38:00,
2013-04-07 10:43:00,76.0,56.0,30.09,ENE,68,5.4,8.7,50,0.00,,,0.00,WSDL version 420,2013-04-07 14:43:00,
2013-04-07 10:48:00,75.9,56.1,30.09,East,90,5.4,8.7,50,0.00,,,0.00,WSDL version 420,2013-04-07 14:48:00,
2013-04-07 10:53:00,75.8,56.4,30.09,East,90,5.4,5.8,51,0.00,,,0.00,WSDL version 420,2013-04-07 14:53:00,
2013-04-07 10:58:00,75.6,56.8,30.09,NNE,23,1.1,5.8,52,0.00,,,0.00,WSDL version 420,2013-04-07 14:58:00,
2013-04-07 11:03:00,75.4,56.7,30.09,ENE,68,1.3,1.3,53,0.00,,,0.00,WSDL version 420,2013-04-07 15:03:00,
2013-04-07 11:08:00,75.4,56.4,30.09,East,79,3.1,4.3,51,0.00,,,0.00,WSDL version 420,2013-04-07 15:08:00,
2013-04-07 11:13:00,75.4,56.5,30.09,ESE,105,2.5,4.3,52,0.00,,,0.00,WSDL version 420,2013-04-07 15:13:00,
2013-04-07 11:18:00,75.6,56.5,30.09,NE,56,3.6,5.6,51,0.00,,,0.00,WSDL version 420,2013-04-07 15:18:00,
2013-04-07 11:23:00,75.7,56.5,30.09,ENE,68,3.1,8.1,51,0.00,,,0.00,WSDL version 420,2013-04-07 15:23:00,
2013-04-07 11:28:00,75.5,56.1,30.09,ENE,68,2.5,8.1,51,0.00,,,0.00,WSDL version 420,2013-04-07 15:28:00,
2013-04-07 11:33:00,75.7,56.8,30.09,ENE,68,2.7,4.3,52,0.00,,,0.00,WSDL version 420,2013-04-07 15:33:00,
2013-04-07 11:38:00,75.8,57.0,30.09,East,79,3.1,4.3,52,0.00,,,0.00,WSDL version 420,2013-04-07 15:38:00,
2013-04-07 11:43:00,76.0,56.4,30.09,NE,56,3.2,4.9,50,0.00,,,0.00,WSDL version 420,2013-04-07 15:43:00,
2013-04-07 11:48:00,76.5,57.0,30.09,East,90,3.8,5.6,50,0.00,,,0.00,WSDL version 420,2013-04-07 15:48:00,
2013-04-07 11:53:00,77.0,57.0,30.09,ENE,77,3.1,5.6,50,0.00,,,0.00,WSDL version 420,2013-04-07 15:53:00,
2013-04-07 11:58:00,77.7,57.7,30.09,NE,56,3.1,4.9,50,0.00,,,0.00,WSDL version 420,2013-04-07 15:58:00,
2013-04-07 12:03:00,77.7,57.5,30.09,NE,45,2.9,5.4,49,0.00,,,0.00,WSDL version 420,2013-04-07 16:03:00,
2013-04-07 12:08:00,78.2,57.2,30.09,ENE,65,5.8,10.1,47,0.00,,,0.00,WSDL version 420,2013-04-07 16:08:00,
2013-04-07 12:18:00,80.4,57.6,30.09,NE,39,3.7,7.4,47,0.00,,,0.00,WSDL version 420,2013-04-07 16:18:00,
2013-04-07 12:23:00,80.8,58.1,30.09,ESE,113,3.0,7.4,46,0.00,,,0.00,WSDL version 420,2013-04-07 16:23:00,
2013-04-07 12:28:00,81.0,57.8,30.09,ENE,58,4.4,6.5,44,0.00,,,0.00,WSDL version 420,2013-04-07 16:28:00,
2013-04-07 12:33:00,80.8,56.9,30.09,ENE,64,3.5,7.4,45,0.00,,,0.00,WSDL version 420,2013-04-07 16:33:00,
2013-04-07 12:38:00,80.9,57.3,30.09,East,90,3.4,8.5,44,0.00,,,0.00,WSDL version 420,2013-04-07 16:38:00,
2013-04-07 12:43:00,80.4,56.2,30.09,NE,45,4.8,9.6,44,0.00,,,0.00,WSDL version 420,2013-04-07 16:43:00,
2013-04-07 12:48:00,79.6,55.4,30.09,East,83,5.7,9.6,43,0.00,,,0.00,WSDL version 420,2013-04-07 16:48:00,
2013-04-07 12:58:00,78.7,55.9,30.09,ENE,72,3.7,6.5,46,0.00,,,0.00,WSDL version 420,2013-04-07 16:58:00,
2013-04-07 13:08:00,79.6,57.3,30.09,ENE,68,5.8,8.1,46,0.00,,,0.00,WSDL version 420,2013-04-07 17:08:00,
2013-04-07 13:13:00,80.4,57.8,30.09,NE,56,3.7,8.1,45,0.00,,,0.00,WSDL version 420,2013-04-07 17:13:00,
2013-04-07 13:18:00,80.6,57.5,30.09,NE,45,4.2,6.5,45,0.00,,,0.00,WSDL version 420,2013-04-07 17:18:00,
2013-04-07 13:28:00,81.4,58.5,30.06,NNE,30,3.2,9.6,46,0.00,,,0.00,WSDL version 420,2013-04-07 17:28:00,
2013-04-07 13:33:00,80.8,56.9,30.06,East,86,3.4,7.6,45,0.00,,,0.00,WSDL version 420,2013-04-07 17:33:00,
2013-04-07 13:38:00,81.0,57.7,30.06,NE,49,3.7,7.6,46,0.00,,,0.00,WSDL version 420,2013-04-07 17:38:00,
2013-04-07 13:43:00,81.0,57.0,30.06,NNE,30,3.4,5.6,44,0.00,,,0.00,WSDL version 420,2013-04-07 17:43:00,
2013-04-07 13:48:00,81.0,57.5,30.06,NE,54,3.1,9.6,45,0.00,,,0.00,WSDL version 420,2013-04-07 17:48:00,
2013-04-07 13:58:00,80.8,56.4,30.06,ENE,73,4.7,8.7,43,0.00,,,0.00,WSDL version 420,2013-04-07 17:58:00,
2013-04-07 14:08:00,80.5,57.2,30.06,North,356,3.1,8.5,45,0.00,,,0.00,WSDL version 420,2013-04-07 18:08:00,
2013-04-07 14:13:00,80.9,56.9,30.06,NE,53,5.4,8.5,43,0.00,,,0.00,WSDL version 420,2013-04-07 18:13:00,
2013-04-07 14:20:00,81.5,57.1,30.06,NNE,32,4.0,7.6,43,0.00,,,0.00,WSDL version 420,2013-04-07 18:20:00,
2013-04-07 14:25:00,81.6,57.0,30.06,NE,51,3.5,7.6,43,0.00,,,0.00,WSDL version 420,2013-04-07 18:25:00,
2013-04-07 14:35:00,80.5,55.6,30.06,ENE,62,6.4,10.5,43,0.00,,,0.00,WSDL version 420,2013-04-07 18:35:00,
2013-04-07 14:40:00,80.2,55.7,30.06,ENE,74,5.2,10.5,43,0.00,,,0.00,WSDL version 420,2013-04-07 18:40:00,
2013-04-07 14:50:00,81.4,56.6,30.06,SW,225,2.9,8.7,43,0.00,,,0.00,WSDL version 420,2013-04-07 18:50:00,
2013-04-07 14:55:00,80.8,55.7,30.06,SE,129,3.9,8.1,42,0.00,,,0.00,WSDL version 420,2013-04-07 18:55:00,
2013-04-07 15:00:00,80.2,55.7,30.06,ESE,108,4.6,8.7,43,0.00,,,0.00,WSDL version 420,2013-04-07 19:00:00,
2013-04-07 15:05:00,79.5,55.4,30.06,WSW,248,4.7,8.7,43,0.00,,,0.00,WSDL version 420,2013-04-07 19:05:00,
2013-04-07 15:15:00,78.3,54.9,30.06,ENE,72,4.7,8.1,45,0.00,,,0.00,WSDL version 420,2013-04-07 19:15:00,
2013-04-07 15:25:00,80.1,56.4,30.06,ENE,75,4.3,10.1,44,0.00,,,0.00,WSDL version 420,2013-04-07 19:25:00,
2013-04-07 15:35:00,80.2,56.1,30.06,ENE,75,3.3,6.3,44,0.00,,,0.00,WSDL version 420,2013-04-07 19:35:00,
2013-04-07 15:40:00,80.2,55.7,30.06,ENE,60,4.2,6.3,43,0.00,,,0.00,WSDL version 420,2013-04-07 19:40:00,
2013-04-07 15:45:00,80.1,55.5,30.06,ESE,113,2.2,6.5,43,0.00,,,0.00,WSDL version 420,2013-04-07 19:45:00,
2013-04-07 15:50:00,80.7,56.4,30.06,ESE,113,2.7,6.5,44,0.00,,,0.00,WSDL version 420,2013-04-07 19:50:00,
2013-04-07 16:00:00,79.7,54.3,30.06,ENE,64,4.2,7.8,42,0.00,,,0.00,WSDL version 420,2013-04-07 20:00:00,
2013-04-07 16:07:00,79.8,54.7,30.03,East,86,4.1,6.5,42,0.00,,,0.00,WSDL version 420,2013-04-07 20:07:00,
2013-04-07 16:17:00,80.8,55.2,30.03,ENE,75,4.2,9.8,42,0.00,,,0.00,WSDL version 420,2013-04-07 20:17:00,
2013-04-07 16:22:00,80.4,54.3,30.06,NE,45,2.7,9.8,41,0.00,,,0.00,WSDL version 420,2013-04-07 20:22:00,
2013-04-07 16:31:00,79.6,54.2,30.06,NE,56,3.7,7.2,42,0.00,,,0.00,WSDL version 420,2013-04-07 20:31:00,
2013-04-07 16:36:00,79.1,54.1,30.03,NE,56,5.0,7.2,42,0.00,,,0.00,WSDL version 420,2013-04-07 20:36:00,
2013-04-07 16:41:00,78.7,53.7,30.03,NE,53,4.7,8.5,42,0.00,,,0.00,WSDL version 420,2013-04-07 20:41:00,
2013-04-07 16:46:00,78.6,53.8,30.03,NE,54,4.2,8.5,42,0.00,,,0.00,WSDL version 420,2013-04-07 20:46:00,
2013-04-07 16:51:00,79.3,54.2,30.03,ENE,76,4.6,8.5,42,0.00,,,0.00,WSDL version 420,2013-04-07 20:51:00,
2013-04-07 16:56:00,79.7,54.8,30.03,East,101,3.5,8.5,43,0.00,,,0.00,WSDL version 420,2013-04-07 20:56:00,
2013-04-07 17:01:00,79.2,53.7,30.03,ENE,68,4.2,7.2,41,0.00,,,0.00,WSDL version 420,2013-04-07 21:01:00,
2013-04-07 17:06:00,78.0,53.2,30.06,SSE,165,3.6,7.2,42,0.00,,,0.00,WSDL version 420,2013-04-07 21:06:00,
2013-04-07 17:11:00,77.2,52.9,30.06,ENE,63,4.4,8.1,43,0.00,,,0.00,WSDL version 420,2013-04-07 21:11:00,
2013-04-07 17:17:00,77.5,53.7,30.06,ENE,68,2.5,8.1,44,0.00,,,0.00,WSDL version 420,2013-04-07 21:17:00,
2013-04-07 17:27:00,79.3,55.2,30.06,East,90,3.4,5.4,43,0.00,,,0.00,WSDL version 420,2013-04-07 21:27:00,
2013-04-07 17:32:00,79.2,54.6,30.06,ENE,68,2.8,6.5,42,0.00,,,0.00,WSDL version 420,2013-04-07 21:32:00,
2013-04-07 17:43:00,78.4,54.0,30.06,East,90,4.5,7.2,43,0.00,,,0.00,WSDL version 420,2013-04-07 21:43:00,
2013-04-07 17:50:00,77.9,53.7,30.06,ENE,68,4.3,7.2,44,0.00,,,0.00,WSDL version 420,2013-04-07 21:50:00,
2013-04-07 17:55:00,77.1,53.5,30.06,SE,135,3.5,7.6,44,0.00,,,0.00,WSDL version 420,2013-04-07 21:55:00,
2013-04-07 18:00:00,77.1,53.7,30.06,ESE,113,4.7,7.6,44,0.00,,,0.00,WSDL version 420,2013-04-07 22:00:00,
2013-04-07 18:05:00,76.8,53.6,30.06,ESE,113,4.7,4.9,45,0.00,,,0.00,WSDL version 420,2013-04-07 22:05:00,
2013-04-07 18:15:00,76.3,53.7,30.06,SE,124,3.9,7.2,46,0.00,,,0.00,WSDL version 420,2013-04-07 22:15:00,
2013-04-07 18:20:00,76.1,53.6,30.03,NE,45,3.8,6.3,45,0.00,,,0.00,WSDL version 420,2013-04-07 22:20:00,
2013-04-07 18:30:00,75.4,53.2,30.03,ENE,68,3.6,5.6,46,0.00,,,0.00,WSDL version 420,2013-04-07 22:30:00,
2013-04-07 18:35:00,75.2,53.4,30.03,ENE,68,4.9,7.2,47,0.00,,,0.00,WSDL version 420,2013-04-07 22:35:00,
2013-04-07 18:40:00,75.0,53.4,30.03,East,83,5.4,7.2,47,0.00,,,0.00,WSDL version 420,2013-04-07 22:40:00,
2013-04-07 18:45:00,74.8,53.3,30.03,ESE,113,3.8,3.8,47,0.00,,,0.00,WSDL version 420,2013-04-07 22:45:00,
2013-04-07 18:50:00,74.7,53.1,30.03,SE,135,3.1,3.4,47,0.00,,,0.00,WSDL version 420,2013-04-07 22:50:00,
2013-04-07 18:55:00,74.3,53.4,30.03,East,90,4.7,4.7,48,0.00,,,0.00,WSDL version 420,2013-04-07 22:55:00,
2013-04-07 19:00:00,74.2,53.7,30.03,East,90,4.7,4.7,49,0.00,,,0.00,WSDL version 420,2013-04-07 23:00:00,
2013-04-07 19:05:00,74.0,53.7,30.03,ENE,68,4.0,4.0,49,0.00,,,0.00,WSDL version 420,2013-04-07 23:05:00,
2013-04-07 19:10:00,73.8,53.4,30.03,ENE,68,4.0,4.0,49,0.00,,,0.00,WSDL version 420,2013-04-07 23:10:00,
2013-04-07 19:15:00,73.6,53.6,30.03,NE,56,3.5,3.5,50,0.00,,,0.00,WSDL version 420,2013-04-07 23:15:00,
2013-04-07 19:20:00,73.3,53.8,30.03,NE,45,2.9,2.9,51,0.00,,,0.00,WSDL version 420,2013-04-07 23:20:00,
2013-04-07 19:25:00,73.2,54.0,30.03,NE,45,2.9,2.9,51,0.00,,,0.00,WSDL version 420,2013-04-07 23:25:00,
2013-04-07 19:30:00,73.0,54.3,30.03,North,0,0.0,2.7,52,0.00,,,0.00,WSDL version 420,2013-04-07 23:30:00,
2013-04-07 19:35:00,72.7,54.1,30.03,North,0,0.0,2.7,52,0.00,,,0.00,WSDL version 420,2013-04-07 23:35:00,
2013-04-07 19:40:00,72.5,54.4,30.03,North,-999,-999.0,-999.0,53,0.00,,,0.00,WSDL version 420,2013-04-07 23:40:00,
2013-04-07 19:50:00,72.1,54.4,30.03,North,-999,-999.0,-999.0,54,0.00,,,0.00,WSDL version 420,2013-04-07 23:50:00,
2013-04-07 19:55:00,71.9,54.4,30.03,North,-999,-999.0,-999.0,54,0.00,,,0.00,WSDL version 420,2013-04-07 23:55:00,
2013-04-07 20:05:00,71.6,54.2,30.06,ENE,68,1.3,1.6,54,0.00,,,0.00,WSDL version 420,2013-04-08 00:05:00,
2013-04-07 20:10:00,71.4,54.4,30.06,ENE,68,1.3,1.6,55,0.00,,,0.00,WSDL version 420,2013-04-08 00:10:00,
2013-04-07 20:15:00,71.2,54.3,30.06,North,0,0.0,1.6,55,0.00,,,0.00,WSDL version 420,2013-04-08 00:15:00,
2013-04-07 20:20:00,71.1,54.3,30.06,North,0,0.0,1.6,56,0.00,,,0.00,WSDL version 420,2013-04-08 00:20:00,
2013-04-07 20:25:00,70.9,54.5,30.03,NNE,23,2.2,0.0,56,0.00,,,0.00,WSDL version 420,2013-04-08 00:25:00,
2013-04-07 20:30:00,70.8,54.3,30.03,NNE,23,2.2,0.0,56,0.00,,,0.00,WSDL version 420,2013-04-08 00:30:00,
2013-04-07 20:35:00,70.6,54.3,30.06,NNE,23,2.2,0.0,56,0.00,,,0.00,WSDL version 420,2013-04-08 00:35:00,
2013-04-07 20:40:00,70.4,54.5,30.06,NNE,23,2.2,0.0,57,0.00,,,0.00,WSDL version 420,2013-04-08 00:40:00,
2013-04-07 20:45:00,70.3,54.3,30.06,North,0,0.0,0.0,57,0.00,,,0.00,WSDL version 420,2013-04-08 00:45:00,
2013-04-07 20:50:00,70.1,54.4,30.06,North,-999,-999.0,-999.0,58,0.00,,,0.00,WSDL version 420,2013-04-08 00:50:00,
2013-04-07 20:55:00,69.9,54.5,30.03,North,-999,-999.0,-999.0,58,0.00,,,0.00,WSDL version 420,2013-04-08 00:55:00,
2013-04-07 21:00:00,69.7,54.6,30.03,North,-999,-999.0,-999.0,59,0.00,,,0.00,WSDL version 420,2013-04-08 01:00:00,
2013-04-07 21:05:00,69.5,54.6,30.06,North,-999,-999.0,-999.0,59,0.00,,,0.00,WSDL version 420,2013-04-08 01:05:00,
2013-04-07 21:10:00,69.4,54.7,30.06,North,-999,-999.0,-999.0,60,0.00,,,0.00,WSDL version 420,2013-04-08 01:10:00,
2013-04-07 21:15:00,69.3,54.8,30.06,North,-999,-999.0,-999.0,60,0.00,,,0.00,WSDL version 420,2013-04-08 01:15:00,
2013-04-07 21:20:00,69.2,54.9,30.06,North,-999,-999.0,-999.0,61,0.00,,,0.00,WSDL version 420,2013-04-08 01:20:00,
2013-04-07 21:25:00,69.0,55.0,30.06,North,-999,-999.0,-999.0,61,0.00,,,0.00,WSDL version 420,2013-04-08 01:25:00,
2013-04-07 21:30:00,68.9,54.9,30.06,North,-999,-999.0,-999.0,61,0.00,,,0.00,WSDL version 420,2013-04-08 01:30:00,
2013-04-07 21:35:00,68.6,55.1,30.06,North,-999,-999.0,-999.0,63,0.00,,,0.00,WSDL version 420,2013-04-08 01:35:00,
2013-04-07 21:40:00,68.4,55.4,30.06,North,-999,-999.0,-999.0,63,0.00,,,0.00,WSDL version 420,2013-04-08 01:40:00,
2013-04-07 21:45:00,68.3,55.2,30.06,North,-999,-999.0,-999.0,63,0.00,,,0.00,WSDL version 420,2013-04-08 01:45:00,
2013-04-07 21:55:00,67.9,55.5,30.06,North,-999,-999.0,-999.0,65,0.00,,,0.00,WSDL version 420,2013-04-08 01:55:00,
2013-04-07 22:00:00,67.7,55.6,30.06,North,-999,-999.0,-999.0,65,0.00,,,0.00,WSDL version 420,2013-04-08 02:00:00,
2013-04-07 22:05:00,67.5,55.7,30.06,North,-999,-999.0,-999.0,66,0.00,,,0.00,WSDL version 420,2013-04-08 02:05:00,
2013-04-07 22:15:00,67.2,55.4,30.06,North,-999,-999.0,-999.0,66,0.00,,,0.00,WSDL version 420,2013-04-08 02:15:00,
2013-04-07 22:20:00,67.0,55.7,30.06,North,-999,-999.0,-999.0,67,0.00,,,0.00,WSDL version 420,2013-04-08 02:20:00,
2013-04-07 22:25:00,66.8,55.6,30.06,North,-999,-999.0,-999.0,68,0.00,,,0.00,WSDL version 420,2013-04-08 02:25:00,
2013-04-07 22:30:00,66.6,55.7,30.06,North,-999,-999.0,-999.0,68,0.00,,,0.00,WSDL version 420,2013-04-08 02:30:00,
2013-04-07 22:35:00,66.4,55.7,30.06,North,-999,-999.0,-999.0,69,0.00,,,0.00,WSDL version 420,2013-04-08 02:35:00,
2013-04-07 22:40:00,66.2,55.7,30.03,North,-999,-999.0,-999.0,69,0.00,,,0.00,WSDL version 420,2013-04-08 02:40:00,
2013-04-07 22:45:00,66.1,55.9,30.03,North,-999,-999.0,-999.0,70,0.00,,,0.00,WSDL version 420,2013-04-08 02:45:00,
2013-04-07 22:50:00,65.9,55.9,30.06,North,-999,-999.0,-999.0,70,0.00,,,0.00,WSDL version 420,2013-04-08 02:50:00,
2013-04-07 23:00:00,65.6,56.0,30.06,North,-999,-999.0,-999.0,71,0.00,,,0.00,WSDL version 420,2013-04-08 03:00:00,
2013-04-07 23:05:00,65.5,55.8,30.03,North,-999,-999.0,-999.0,71,0.00,,,0.00,WSDL version 420,2013-04-08 03:05:00,
2013-04-07 23:10:00,65.4,55.7,30.03,North,-999,-999.0,-999.0,71,0.00,,,0.00,WSDL version 420,2013-04-08 03:10:00,
2013-04-07 23:15:00,65.2,55.8,30.03,North,-999,-999.0,-999.0,72,0.00,,,0.00,WSDL version 420,2013-04-08 03:15:00,
2013-04-07 23:25:00,64.9,55.6,30.06,North,-999,-999.0,-999.0,72,0.00,,,0.00,WSDL version 420,2013-04-08 03:25:00,
2013-04-07 23:30:00,64.8,55.9,30.06,North,-999,-999.0,-999.0,73,0.00,,,0.00,WSDL version 420,2013-04-08 03:30:00,
2013-04-07 23:40:00,64.6,56.1,30.06,North,-999,-999.0,-999.0,74,0.00,,,0.00,WSDL version 420,2013-04-08 03:40:00,
2013-04-07 23:45:00,64.5,56.3,30.06,North,-999,-999.0,-999.0,75,0.00,,,0.00,WSDL version 420,2013-04-08 03:45:00,
2013-04-07 23:55:00,64.2,56.5,30.06,North,-999,-999.0,-999.0,76,0.00,,,0.00,WSDL version 420,2013-04-08 03:55:00,